• In Uzbekistan
  • List of Countries
  • For 7 days
  • Water Temperature
  • Weather Map
  • Weather Widgets
  • user-avatar
    Login

    Hourly Weather Palenque

    Today, 20 August, Tuesday

    Time Temperature Precipitation Wind Pressure Humidity
    00:00 +26°C° 0 mm 1 mps 754 mmHg 90%
    01:00 +25°C° 0 mm 1 mps 754 mmHg 91%
    02:00 +25°C° 0 mm 2 mps 753 mmHg 91%
    03:00 +24°C° 0 mm 2 mps 753 mmHg 92%
    04:00 +24°C° 0 mm 2 mps 753 mmHg 92%
    05:00 +24°C° 0 mm 2 mps 754 mmHg 92%
    06:00 +23°C° 0 mm 2 mps 754 mmHg 93%
    07:00 +26°C° 0 mm 2 mps 754 mmHg 85%
    08:00 +28°C° 0 mm 2 mps 755 mmHg 77%
    09:00 +30°C° 0 mm 1 mps 755 mmHg 68%
    10:00 +31°C° 0 mm 2 mps 755 mmHg 66%
    11:00 +32°C° 0 mm 2 mps 754 mmHg 63%
    12:00 +34°C° 0 mm 3 mps 754 mmHg 61%
    13:00 +34°C° 0.3 mm 3 mps 753 mmHg 64%
    14:00 +34°C° 0.3 mm 2 mps 752 mmHg 66%
    15:00 +34°C° 0.3 mm 2 mps 752 mmHg 69%
    16:00 +32°C° 0.8 mm 1 mps 752 mmHg 73%
    17:00 +31°C° 0.8 mm 1 mps 752 mmHg 76%
    18:00 +28°C° 0.8 mm 0 mps 752 mmHg 80%
    19:00 +28°C° 2 mm 1 mps 753 mmHg 85%
    20:00 +27°C° 2 mm 1 mps 754 mmHg 89%
    21:00 +25°C° 2 mm 2 mps 755 mmHg 94%
    22:00 +25°C° 0.5 mm 1 mps 755 mmHg 94%
    23:00 +25°C° 0.5 mm 1 mps 755 mmHg 95%

    Tomorrow, 21 August, Wednesday

    Time Temperature Precipitation Wind Pressure Humidity
    00:00 +25°C° 0.5 mm 1 mps 755 mmHg 95%
    01:00 +25°C° 0 mm 1 mps 755 mmHg 95%
    02:00 +25°C° 0 mm 1 mps 754 mmHg 94%
    03:00 +24°C° 0 mm 1 mps 754 mmHg 93%
    04:00 +24°C° 0 mm 1 mps 754 mmHg 93%
    05:00 +24°C° 0 mm 1 mps 754 mmHg 93%
    06:00 +24°C° 0 mm 1 mps 754 mmHg 94%
    07:00 +26°C° 0 mm 1 mps 754 mmHg 87%
    08:00 +28°C° 0 mm 1 mps 755 mmHg 81%
    09:00 +30°C° 0 mm 1 mps 755 mmHg 75%
    10:00 +31°C° 0.1 mm 1 mps 755 mmHg 73%
    11:00 +32°C° 0.1 mm 1 mps 755 mmHg 71%
    12:00 +34°C° 0.1 mm 2 mps 754 mmHg 69%
    13:00 +32°C° 1.6 mm 2 mps 754 mmHg 71%
    14:00 +32°C° 1.6 mm 1 mps 753 mmHg 74%
    15:00 +32°C° 1.6 mm 1 mps 752 mmHg 76%
    16:00 +31°C° 1.1 mm 1 mps 752 mmHg 81%
    17:00 +29°C° 1.1 mm 2 mps 752 mmHg 86%
    18:00 +28°C° 1.1 mm 2 mps 752 mmHg 91%
    19:00 +27°C° 0.5 mm 2 mps 753 mmHg 91%
    20:00 +27°C° 0.5 mm 2 mps 754 mmHg 92%
    21:00 +27°C° 0.5 mm 2 mps 755 mmHg 93%
    22:00 +26°C° 0.8 mm 2 mps 755 mmHg 94%
    23:00 +26°C° 0.8 mm 1 mps 755 mmHg 95%

    Day after tomorrow, 22 August, Thursday

    Time Temperature Precipitation Wind Pressure Humidity
    00:00 +26°C° 0.8 mm 1 mps 755 mmHg 96%
    01:00 +26°C° 0.4 mm 1 mps 755 mmHg 96%
    02:00 +26°C° 0.4 mm 1 mps 755 mmHg 96%
    03:00 +26°C° 0.4 mm 1 mps 754 mmHg 96%
    04:00 +26°C° 0 mm 1 mps 754 mmHg 96%
    05:00 +25°C° 0 mm 1 mps 754 mmHg 96%
    06:00 +25°C° 0 mm 1 mps 754 mmHg 96%
    07:00 +27°C° 0 mm 2 mps 755 mmHg 90%
    08:00 +29°C° 0 mm 2 mps 755 mmHg 84%
    09:00 +30°C° 0 mm 2 mps 755 mmHg 78%
    10:00 +32°C° 0 mm 2 mps 754 mmHg 73%
    11:00 +34°C° 0 mm 3 mps 754 mmHg 68%
    12:00 +35°C° 0 mm 3 mps 753 mmHg 63%
    13:00 +35°C° 0.4 mm 3 mps 753 mmHg 66%
    14:00 +35°C° 0.4 mm 3 mps 752 mmHg 69%
    15:00 +35°C° 0.4 mm 3 mps 752 mmHg 72%
    16:00 +34°C° 0.3 mm 2 mps 752 mmHg 76%
    17:00 +32°C° 0.3 mm 1 mps 752 mmHg 79%
    18:00 +31°C° 0.3 mm 1 mps 752 mmHg 82%
    19:00 +30°C° 0.1 mm 1 mps 752 mmHg 84%
    20:00 +29°C° 0.1 mm 1 mps 753 mmHg 86%
    21:00 +28°C° 0.1 mm 1 mps 754 mmHg 88%
    22:00 +28°C° 0.2 mm 1 mps 754 mmHg 89%
    23:00 +27°C° 0.2 mm 1 mps 754 mmHg 90%

    23 August, Friday

    Time Temperature Precipitation Wind Pressure Humidity
    00:00 +27°C° 0.2 mm 1 mps 754 mmHg 91%
    01:00 +27°C° 0 mm 2 mps 754 mmHg 92%
    02:00 +26°C° 0 mm 2 mps 754 mmHg 92%
    03:00 +26°C° 0 mm 2 mps 753 mmHg 92%
    04:00 +25°C° 0 mm 2 mps 754 mmHg 92%
    05:00 +25°C° 0 mm 2 mps 754 mmHg 92%
    06:00 +25°C° 0 mm 2 mps 754 mmHg 91%
    07:00 +27°C° 0 mm 2 mps 754 mmHg 85%
    08:00 +29°C° 0 mm 2 mps 754 mmHg 79%
    09:00 +31°C° 0 mm 2 mps 755 mmHg 73%
    10:00 +32°C° 0 mm 2 mps 754 mmHg 69%
    11:00 +35°C° 0 mm 3 mps 754 mmHg 65%
    12:00 +36°C° 0 mm 3 mps 753 mmHg 61%
    13:00 +36°C° 0.3 mm 3 mps 753 mmHg 64%
    14:00 +35°C° 0.3 mm 3 mps 752 mmHg 67%
    15:00 +35°C° 0.3 mm 3 mps 751 mmHg 70%
    16:00 +34°C° 0.2 mm 3 mps 751 mmHg 72%
    17:00 +32°C° 0.2 mm 2 mps 751 mmHg 75%
    18:00 +31°C° 0.2 mm 1 mps 751 mmHg 77%
    19:00 +30°C° 0 mm 1 mps 752 mmHg 78%
    20:00 +29°C° 0 mm 1 mps 753 mmHg 80%
    21:00 +28°C° 0 mm 1 mps 754 mmHg 82%
    22:00 +28°C° 0 mm 1 mps 754 mmHg 82%
    23:00 +27°C° 0 mm 1 mps 754 mmHg 83%

    24 August, Saturday

    Time Temperature Precipitation Wind Pressure Humidity
    00:00 +27°C° 0 mm 1 mps 754 mmHg 84%
    01:00 +27°C° 0 mm 1 mps 754 mmHg 84%
    02:00 +26°C° 0 mm 1 mps 754 mmHg 85%
    03:00 +26°C° 0 mm 1 mps 753 mmHg 85%
    04:00 +25°C° 0 mm 1 mps 754 mmHg 85%
    05:00 +25°C° 0 mm 1 mps 754 mmHg 85%
    06:00 +25°C° 0 mm 1 mps 754 mmHg 85%
    07:00 +27°C° 0 mm 1 mps 754 mmHg 79%
    08:00 +29°C° 0 mm 1 mps 754 mmHg 74%
    09:00 +31°C° 0 mm 1 mps 755 mmHg 68%
    10:00 +32°C° 0 mm 2 mps 754 mmHg 63%
    11:00 +35°C° 0 mm 2 mps 754 mmHg 57%
    12:00 +36°C° 0 mm 2 mps 754 mmHg 52%
    13:00 +36°C° 0 mm 2 mps 753 mmHg 53%
    14:00 +36°C° 0 mm 2 mps 752 mmHg 54%
    15:00 +36°C° 0 mm 2 mps 751 mmHg 56%
    16:00 +35°C° 0 mm 2 mps 752 mmHg 62%
    17:00 +33°C° 0 mm 1 mps 752 mmHg 68%
    18:00 +29°C° 0 mm 0 mps 752 mmHg 74%
    19:00 +30°C° 0 mm 1 mps 752 mmHg 75%
    20:00 +29°C° 0 mm 1 mps 753 mmHg 76%
    21:00 +28°C° 0 mm 1 mps 754 mmHg 78%
    22:00 +28°C° 0.1 mm 1 mps 754 mmHg 80%
    23:00 +27°C° 0.1 mm 1 mps 754 mmHg 82%

    25 August, Sunday

    Time Temperature Precipitation Wind Pressure Humidity
    00:00 +27°C° 0.1 mm 1 mps 754 mmHg 84%
    01:00 +26°C° 0 mm 1 mps 753 mmHg 84%
    02:00 +26°C° 0 mm 1 mps 753 mmHg 85%
    03:00 +24°C° 0 mm 0 mps 753 mmHg 85%
    04:00 +26°C° 0 mm 1 mps 753 mmHg 85%
    05:00 +26°C° 0 mm 1 mps 753 mmHg 85%
    06:00 +26°C° 0 mm 1 mps 753 mmHg 85%
    07:00 +27°C° 0 mm 1 mps 754 mmHg 80%
    08:00 +27°C° 0 mm 0 mps 754 mmHg 75%
    09:00 +29°C° 0 mm 0 mps 754 mmHg 69%
    10:00 +32°C° 0 mm 1 mps 754 mmHg 66%
    11:00 +34°C° 0 mm 1 mps 753 mmHg 63%
    12:00 +36°C° 0 mm 2 mps 753 mmHg 60%
    13:00 +36°C° 0.3 mm 2 mps 752 mmHg 61%
    14:00 +36°C° 0.3 mm 2 mps 751 mmHg 62%
    15:00 +36°C° 0.3 mm 2 mps 751 mmHg 63%
    16:00 +35°C° 0.2 mm 2 mps 751 mmHg 67%
    17:00 +32°C° 0.2 mm 1 mps 751 mmHg 70%
    18:00 +29°C° 0.2 mm 0 mps 751 mmHg 74%
    19:00 +28°C° 0 mm 0 mps 752 mmHg 76%
    20:00 +27°C° 0 mm 0 mps 752 mmHg 77%
    21:00 +26°C° 0 mm 0 mps 753 mmHg 79%
    22:00 +28°C° 0.7 mm 1 mps 753 mmHg 82%
    23:00 +27°C° 0.7 mm 1 mps 753 mmHg 86%
    Show more